Temperature
12 12 12 12 12 12 12 11 11 11 11 11 10 10 10 10 10 10 10 10 10 10 10 10 10 10 10 10 10 10 10 10 10 10 10 9 10 10 10 10 9 10 10
12 12 12 12 11 11 11 11 11 11 10 10 10 10 10 10 10 10 9 9 10 10 9 9 9 9 9 9 9 9 10 9 9 9 9 9 9 9 9 9 9 9 9
12 11 11 11 11 11 11 11 11 10 10 10 10 10 10 10 9 9 9 9 9 9 9 9 9 9 9 9 9 9 9 9 9 9 9 9 9 9 9 9 9 9 9
11 11 11 11 11 11 11 10 10 10 10 10 9 9 9 9 9 9 9 9 9 9 9 9 9 9 9 9 9 9 9 9 9 9 9 9 8 9 8 8 8 8 8
11 11 10 10 10 10 10 10 10 10 9 9 9 9 9 9 9 9 8 8 8 8 8 8 8 9 9 8 8 9 9 8 8 8 8 8 8 8 8 8 8 8 8
10 10 10 10 10 10 10 10 9 9 9 9 9 9 9 8 8 8 8 8 8 8 8 8 8 8 8 8 8 8 8 8 8 8 8 8 8 8 8 8 8 8 7
10 10 10 9 9 9 9 9 9 9 9 9 9 8 8 8 8 8 8 8 7 7 7 8 8 8 8 8 8 8 8 8 8 8 8 8 8 8 8 8 7 7 7
10 10 9 9 9 9 9 9 9 9 8 8 8 8 8 8 8 8 7 7 7 7 7 7 7 7 7 7 7 8 8 8 8 8 8 8 8 8 8 7 7 7 7
10 9 9 9 9 9 9 9 8 8 8 8 8 8 8 8 8 7 7 7 7 7 7 7 7 7 7 7 7 7 7 7 7 7 7 7 7 7 7 7 7 7 7
10 9 9 9 9 8 8 8 8 8 8 8 7 7 7 7 7 7 7 6 6 7 7 7 7 7 7 7 7 7 7 7 7 7 7 7 7 7 7 7 7 6 6
9 9 9 9 8 8 8 8 8 7 7 7 7 7 7 7 7 7 7 6 6 6 6 6 7 7 7 7 7 6 7 7 7 6 6 6 6 6 6 6 6 6 6
9 9 8 8 8 8 8 7 7 7 7 7 7 7 7 7 7 6 6 6 6 6 6 6 6 6 6 6 6 6 6 6 6 6 6 6 6 6 6 6 6 6 6
8 8 8 8 8 7 7 7 7 7 7 7 7 7 7 6 6 6 6 6 6 6 6 6 6 6 6 6 6 6 6 6 6 6 5 5 5 6 6 6 6 6 5
8 8 7 7 7 7 7 7 7 7 6 6 6 6 6 6 6 6 6 6 6 6 6 5 5 6 6 6 6 6 6 6 5 5 5 5 5 5 5 5 5 5 5
7 7 7 7 7 7 7 7 7 7 6 6 6 6 6 6 6 6 6 6 5 5 5 5 5 5 5 5 5 5 5 5 5 5 5 5 5 5 5 5 5 5 4
7 7 7 7 7 7 6 6 7 6 6 6 6 6 6 6 6 6 6 5 5 5 5 5 5 5 5 5 5 5 5 5 5 5 5 4 4 4 4 4 4 4 4
7 7 6 6 6 6 6 6 6 6 6 6 6 5 5 6 6 5 5 5 5 5 4 4 4 4 4 4 4 4 5 5 5 5 4 4 4 4 4 4 4 4 4
6 6 6 6 6 6 6 6 6 6 5 5 5 5 5 5 5 5 5 5 4 4 4 4 4 4 4 4 4 4 4 4 4 4 4 4 4 4 4 3 3 3 3
6 6 6 6 6 6 5 5 5 5 5 5 5 5 5 5 5 5 4 4 4 4 4 4 4 4 4 4 4 4 4 4 4 4 4 4 4 3 3 3 3 3 3
6 6 6 6 5 5 5 5 5 5 5 5 5 5 5 5 4 4 4 4 4 4 4 4 4 4 4 4 3 4 4 4 4 4 4 3 3 3 3 3 3 3 3
5 5 5 5 5 5 5 5 4 4 4 4 4 4 4 4 4 4 4 4 4 4 4 4 4 4 4 3 3 3 3 3 3 3 3 3 3 3 3 2 2 2 2
5 5 5 5 5 4 4 4 4 4 4 4 4 4 4 4 4 4 4 4 4 4 4 3 3 3 3 3 3 3 3 3 3 3 3 3 3 3 3 2 2 2 2
5 4 4 4 4 4 4 4 3 3 3 3 3 3 3 3 3 3 3 3 3 3 3 3 3 3 3 3 3 3 3 3 3 3 3 3 3 3 3 2 2 2 2
4 4 4 4 3 3 3 3 3 3 3 3 3 3 3 3 3 3 3 3 3 3 3 3 3 3 3 3 3 3 3 3 3 3 2 3 3 3 2 2 2 2 1
4 4 3 3 3 3 3 3 3 3 3 3 3 3 3 3 2 3 3 3 2 2 2 2 2 3 3 3 3 3 3 2 2 2 2 2 2 2 2 2 2 1 1
3 3 3 3 3 3 2 2 3 3 2 2 2 2 2 2 2 2 2 2 2 2 2 2 2 2 2 2 2 2 2 2 2 2 2 2 2 2 2 2 1 1 1
Wind_Speed
3 2 2 2 2 2 3 3 3 3 3 3 3 3 3 4 4 4 5 4 4 4 3 4 4 3 3 3 3 3 3 3 4 3 2 3 3 2 2 2 2 2 1
3 3 2 2 2 3 3 3 4 4 3 3 4 4 4 4 4 5 5 5 5 5 5 5 4 3 4 4 3 3 3 3 3 4 3 3 3 3 3 3 2 2 1
3 3 3 3 3 3 3 4 4 4 4 4 4 4 5 5 5 5 5 6 6 6 6 6 5 5 5 4 4 4 4 4 3 4 3 2 3 3 3 3 3 2 2
4 4 4 4 4 4 4 4 4 5 5 5 5 5 5 6 5 5 5 6 6 6 6 6 6 6 6 6 5 5 4 4 4 4 3 3 3 3 3 3 2 2 2
5 5 4 4 4 4 4 4 4 5 5 5 5 6 6 6 5 6 6 6 7 7 7 7 6 5 5 5 5 5 4 4 4 4 3 3 3 3 3 3 3 2 3
6 5 5 5 4 5 5 5 5 5 5 5 6 7 7 6 4 6 7 7 7 7 7 7 6 6 5 5 5 6 6 6 5 5 4 5 5 4 3 3 3 3 3
6 6 5 5 5 5 6 6 5 6 6 6 6 7 7 6 5 7 8 8 8 8 8 8 6 6 7 6 6 6 7 6 6 7 6 6 5 4 4 5 4 4 4
7 6 6 6 6 6 6 6 6 6 6 7 7 7 7 7 6 7 8 9 8 8 9 9 9 8 6 6 6 7 7 6 7 7 6 6 5 4 5 5 5 4 3
7 7 7 7 7 7 7 7 7 7 7 7 7 7 8 7 6 7 9 8 8 9 9 9 9 9 6 6 8 7 7 6 4 4 4 3 3 3 4 3 3 4 4
7 7 7 7 7 8 8 8 7 7 7 7 7 8 8 8 6 7 9 7 8 8 8 8 8 9 7 7 8 7 8 7 5 5 4 4 4 4 5 6 5 5 4
7 7 7 7 8 8 7 7 6 6 7 7 8 7 8 8 7 8 9 7 7 8 7 7 6 6 7 8 9 8 7 6 5 5 4 4 4 3 4 5 5 5 5
6 7 7 8 7 7 7 7 7 7 7 7 7 7 6 7 7 7 9 10 9 8 7 6 5 5 6 7 7 6 5 5 5 4 4 4 4 4 3 4 5 5 5
6 7 7 8 7 7 7 7 6 6 6 6 6 6 6 5 5 7 9 10 9 8 7 6 6 5 5 5 6 6 6 5 5 4 4 4 4 4 3 3 4 3 4
7 8 7 7 7 7 6 6 6 6 6 6 6 6 6 5 5 5 5 6 7 7 6 5 5 6 6 5 5 5 5 5 5 5 4 4 3 3 3 3 3 3 2
7 7 7 7 7 6 6 6 7 7 6 6 7 7 6 6 6 5 5 5 5 5 5 5 5 4 5 5 5 5 5 5 5 4 4 4 4 4 3 3 3 3 3
6 6 6 6 6 5 6 6 6 7 7 8 8 7 7 6 4 5 6 5 4 4 4 5 5 6 6 5 5 5 5 5 5 5 5 5 4 4 4 3 3 3 3
7 6 5 6 6 6 6 6 6 5 6 8 8 8 8 6 5 5 6 5 4 4 4 5 5 5 5 5 5 5 5 5 5 5 5 5 5 4 4 4 4 4 3
7 6 6 5 5 5 6 6 6 6 5 5 6 7 7 7 7 6 5 4 4 5 5 5 6 6 5 5 5 5 5 5 5 5 5 5 5 5 5 5 4 4 4
6 5 5 5 5 5 5 5 5 6 6 5 5 4 5 6 6 6 6 5 5 5 5 6 6 5 5 5 5 5 5 5 5 5 5 5 5 5 5 5 5 5 4
5 5 5 4 4 4 5 5 5 5 5 5 5 4 3 3 3 4 5 5 5 5 5 5 5 5 4 4 4 4 5 5 5 5 5 5 5 6 6 6 5 5 4
4 4 5 4 4 4 4 5 5 5 4 4 4 3 3 4 4 4 4 4 4 4 4 4 4 4 4 4 4 5 5 4 4 5 5 5 5 6 5 5 5 5 4
4 4 4 4 4 4 4 4 4 4 4 4 3 2 3 4 3 3 4 4 4 4 4 4 4 4 4 4 4 4 5 5 4 5 5 5 5 5 5 5 5 4 4
4 4 3 4 3 3 3 3 4 4 3 3 3 2 2 3 3 3 3 3 3 3 3 3 4 3 4 4 4 4 5 5 4 4 5 5 5 5 5 5 6 5 5
3 3 3 3 3 3 4 4 4 3 3 3 3 3 2 3 3 3 3 3 3 3 3 3 3 4 4 3 3 3 4 4 4 5 5 5 5 5 5 5 5 6 5
3 3 3 3 3 3 4 4 3 3 3 3 3 3 2 2 2 3 3 3 3 3 3 3 3 3 4 4 3 2 2 2 3 4 4 4 5 5 5 5 5 5 5
2 2 2 3 3 3 3 3 3 3 3 3 3 3 3 2 2 2 2 2 2 2 2 2 3 3 3 3 3 2 2 2 2 3 3 3 4 4 5 4 5 5 6
Wind_Direction
220 228 236 253 252 256 254 251 257 261 263 267 275 275 266 259 257 254 256 255 258 262 261 261 261 262 267 272 270 270 270 267 267 277 277 276 262 260 271 268 254 252 196
223 230 235 248 246 247 259 257 256 261 260 262 271 272 270 268 263 257 256 255 255 258 259 261 260 255 260 266 265 266 267 266 267 272 271 273 267 264 265 265 267 263 269
223 231 238 244 246 248 259 257 253 256 257 261 266 270 268 265 263 259 256 257 256 255 257 259 259 257 258 259 258 261 263 264 264 259 263 272 270 260 262 257 256 269 279
224 234 242 248 254 256 263 257 252 253 255 260 263 265 265 264 262 260 260 259 260 257 256 258 258 257 260 259 258 258 263 263 260 254 253 253 261 265 260 255 256 254 266
224 235 246 252 255 257 262 261 254 251 257 260 260 260 260 258 258 264 264 265 262 262 259 256 258 267 283 274 268 263 259 259 258 251 248 249 256 258 253 252 257 260 258
229 236 245 249 250 254 259 258 257 256 258 258 257 256 256 255 260 270 272 267 264 261 261 258 255 250 254 255 266 279 273 257 257 255 252 251 252 262 260 251 250 251 256
233 238 242 249 252 254 258 258 254 254 258 259 259 257 256 254 250 258 268 268 263 261 261 260 257 257 250 248 245 249 250 254 261 261 257 259 258 253 252 246 241 252 261
235 240 241 246 253 255 258 258 255 256 253 254 258 258 258 254 245 250 258 257 259 260 259 259 256 253 250 256 254 253 252 245 247 255 258 265 266 260 247 250 246 243 254
239 241 242 245 250 252 254 255 255 255 254 254 256 255 255 253 240 245 252 256 257 259 258 258 259 253 249 259 255 252 253 247 240 260 276 269 275 264 244 232 228 224 238
244 245 243 243 246 248 252 253 255 253 254 256 257 255 254 255 240 240 251 254 256 258 257 256 258 260 251 245 248 250 252 249 246 248 240 225 231 218 223 231 229 230 234
254 252 248 244 246 248 252 253 254 253 254 254 257 259 256 255 243 237 246 253 257 258 256 255 253 246 250 245 253 253 262 263 247 246 237 229 232 234 234 244 247 239 234
256 255 252 250 248 247 251 251 250 250 249 252 254 258 259 254 250 241 242 252 266 260 259 257 253 234 242 243 246 251 261 266 244 233 232 229 230 238 245 248 251 253 252
251 251 251 250 249 249 249 248 248 247 249 251 251 253 256 257 251 242 241 246 254 256 260 267 264 243 238 238 232 236 238 246 235 231 231 236 237 238 240 241 240 244 251
247 248 249 248 251 252 250 246 245 246 249 251 251 254 255 253 251 247 245 244 241 246 252 247 241 237 235 243 240 235 238 242 236 232 233 233 233 230 229 233 233 224 233
250 251 250 247 249 250 249 249 246 247 249 252 255 254 252 252 253 257 253 244 244 244 246 244 242 238 236 238 239 238 239 232 228 228 226 230 227 226 231 234 232 228 232
250 250 250 249 245 245 249 253 246 251 247 248 261 267 261 267 267 247 248 251 251 237 234 237 238 238 237 239 239 238 237 230 227 223 224 224 225 226 235 237 225 229 232
243 246 248 247 243 242 245 251 259 256 242 241 249 259 262 262 253 247 242 235 228 215 232 242 242 244 245 246 241 240 238 230 227 226 224 224 223 224 229 233 227 228 233
245 245 246 244 244 243 244 249 253 258 263 267 253 244 249 250 247 240 231 216 231 229 239 244 246 247 244 243 242 241 237 227 224 224 223 222 218 218 225 227 224 228 231
244 243 241 244 243 243 243 248 252 254 258 264 270 254 238 239 234 229 213 222 232 237 240 244 246 248 246 244 242 242 236 228 224 222 222 220 217 218 225 223 223 223 229
244 237 239 242 242 244 241 243 246 251 256 257 257 259 236 218 225 225 223 231 238 241 240 242 246 247 245 244 242 240 234 229 225 224 222 218 216 217 219 219 218 217 226
245 232 222 235 240 243 244 245 247 250 251 257 259 257 233 221 224 226 222 227 234 240 242 242 244 243 242 242 242 235 233 235 233 228 223 217 214 216 216 216 216 218 222
238 237 228 231 236 241 245 247 249 250 249 257 265 246 203 225 232 231 229 230 232 238 240 238 241 244 242 240 238 235 234 236 236 235 224 216 212 213 213 211 210 212 212
232 233 233 238 240 240 242 248 250 250 247 250 252 247 227 228 233 233 237 238 231 234 241 240 241 243 245 243 240 234 232 233 233 233 225 215 210 208 208 207 208 206 206
230 231 235 240 243 243 243 247 248 249 244 238 243 243 239 238 240 238 234 226 226 235 237 238 242 243 244 247 244 246 247 240 230 226 222 216 209 203 201 206 206 204 203
232 237 240 243 244 243 244 246 249 251 248 240 239 245 246 244 246 241 232 222 223 229 233 238 240 238 239 237 243 249 258 249 246 230 212 208 206 200 197 200 200 198 195
235 244 247 247 250 253 249 247 247 251 253 251 244 236 236 236 234 233 225 221 225 229 233 234 232 235 242 236 238 247 230 216 216 219 212 203 201 199 192 190 188 192 190
Height
1522 1523 1523 1523 1522 1522 1522 1522 1522 1522 1521 1521 1521 1520 1519 1519 1518 1518 1518 1518 1517 1517 1517 1516 1516 1515 1515 1515 1514 1514 1513 1513 1512 1511 1510 1510 1509 1508 1508 1507 1507 1506 1506
1519 1520 1520 1519 1519 1519 1519 1519 1519 1519 1518 1518 1518 1517 1517 1516 1516 1515 1515 1515 1514 1514 1514 1514 1513 1513 1512 1512 1512 1511 1511 1510 1510 1508 1508 1507 1506 1506 1505 1505 1504 1504 1503
1516 1516 1516 1516 1516 1516 1516 1516 1516 1515 1515 1515 1515 1514 1514 1513 1513 1512 1512 1512 1512 1511 1511 1511 1511 1510 1510 1509 1509 1509 1508 1508 1507 1506 1505 1504 1503 1503 1502 1502 1502 1501 1501
1513 1513 1513 1513 1513 1513 1513 1513 1512 1512 1512 1511 1511 1510 1510 1510 1509 1509 1509 1509 1508 1508 1508 1508 1507 1507 1507 1506 1506 1506 1505 1505 1504 1503 1502 1502 1501 1500 1499 1499 1499 1499 1498
1509 1510 1510 1510 1509 1509 1509 1509 1509 1509 1508 1508 1507 1507 1506 1506 1506 1505 1505 1505 1505 1505 1504 1504 1504 1503 1503 1502 1502 1502 1502 1501 1501 1500 1500 1499 1498 1497 1496 1496 1496 1496 1495
1506 1506 1506 1506 1506 1505 1505 1506 1505 1505 1504 1504 1503 1503 1502 1502 1501 1501 1501 1501 1501 1501 1500 1500 1500 1499 1498 1498 1498 1498 1498 1498 1498 1497 1497 1496 1495 1494 1494 1493 1493 1493 1492
1502 1502 1502 1502 1502 1502 1502 1501 1501 1500 1500 1500 1499 1499 1498 1497 1497 1497 1496 1496 1496 1496 1496 1496 1496 1495 1495 1495 1494 1494 1494 1494 1494 1494 1493 1492 1492 1491 1490 1490 1490 1490 1489
1497 1498 1498 1498 1498 1497 1497 1497 1496 1496 1496 1495 1495 1494 1493 1492 1492 1492 1492 1492 1492 1492 1492 1492 1491 1491 1491 1491 1490 1490 1490 1490 1490 1489 1489 1489 1488 1488 1487 1487 1487 1487 1486
1493 1493 1493 1493 1493 1493 1492 1492 1492 1491 1491 1491 1490 1489 1489 1488 1488 1487 1487 1487 1487 1487 1487 1487 1487 1487 1486 1486 1486 1486 1486 1486 1486 1485 1485 1484 1484 1483 1483 1483 1483 1483 1483
1488 1488 1488 1488 1488 1488 1487 1487 1487 1487 1486 1486 1485 1485 1485 1484 1483 1483 1483 1483 1482 1482 1482 1482 1481 1481 1481 1481 1482 1481 1481 1481 1481 1481 1480 1480 1480 1480 1479 1480 1479 1479 1479
1483 1483 1483 1483 1483 1483 1482 1482 1482 1481 1481 1481 1480 1480 1480 1479 1478 1478 1478 1478 1478 1477 1477 1477 1476 1476 1476 1476 1477 1477 1477 1477 1477 1476 1476 1476 1476 1475 1475 1475 1476 1476 1476
1478 1478 1478 1478 1478 1478 1477 1477 1477 1477 1476 1476 1475 1475 1474 1474 1473 1473 1473 1473 1473 1472 1472 1472 1472 1471 1471 1471 1471 1472 1472 1472 1472 1472 1472 1471 1471 1471 1471 1471 1472 1472 1472
1473 1473 1473 1473 1473 1473 1473 1472 1472 1472 1471 1471 1470 1469 1469 1469 1468 1468 1468 1467 1467 1467 1467 1467 1467 1466 1466 1466 1467 1467 1467 1467 1467 1467 1467 1467 1468 1467 1467 1467 1467 1468 1468
1468 1468 1468 1468 1468 1468 1467 1467 1467 1466 1466 1465 1465 1464 1464 1464 1463 1463 1463 1462 1462 1462 1462 1462 1462 1462 1461 1462 1462 1462 1462 1463 1463 1463 1464 1464 1464 1464 1463 1463 1463 1463 1463
1463 1463 1463 1463 1463 1462 1462 1462 1461 1461 1461 1460 1460 1459 1459 1458 1458 1458 1458 1458 1457 1457 1457 1457 1457 1457 1456 1457 1457 1457 1458 1458 1458 1459 1459 1460 1460 1460 1460 1460 1459 1459 1460
1457 1458 1458 1458 1458 1457 1457 1456 1456 1456 1455 1455 1454 1454 1453 1454 1453 1453 1453 1453 1453 1453 1453 1452 1452 1452 1452 1452 1452 1453 1453 1453 1454 1455 1455 1455 1455 1456 1456 1456 1456 1456 1456
1452 1452 1452 1453 1452 1452 1452 1451 1450 1450 1450 1449 1449 1448 1448 1448 1448 1448 1448 1448 1449 1449 1448 1448 1448 1448 1448 1448 1448 1448 1449 1449 1450 1450 1451 1451 1451 1451 1452 1452 1452 1452 1452
1447 1447 1447 1447 1447 1447 1447 1446 1445 1445 1444 1443 1443 1443 1442 1443 1443 1444 1444 1444 1444 1444 1444 1444 1444 1444 1443 1443 1443 1444 1444 1444 1445 1445 1446 1446 1446 1447 1447 1448 1448 1449 1449
1441 1441 1442 1442 1442 1442 1442 1441 1441 1440 1439 1438 1437 1437 1437 1437 1438 1439 1439 1439 1439 1439 1439 1440 1440 1440 1439 1439 1439 1439 1440 1440 1440 1441 1441 1441 1442 1442 1443 1444 1444 1445 1445
1436 1436 1436 1437 1436 1436 1436 1436 1436 1435 1434 1433 1433 1432 1432 1432 1432 1433 1434 1434 1435 1435 1435 1435 1435 1435 1435 1435 1435 1435 1435 1435 1436 1436 1437 1437 1438 1439 1439 1440 1440 1441 1442
1431 1431 1431 1431 1431 1431 1431 1431 1431 1430 1430 1429 1428 1428 1427 1427 1428 1429 1429 1430 1430 1431 1431 1432 1432 1431 1431 1431 1431 1431 1431 1431 1432 1432 1433 1433 1434 1435 1436 1437 1437 1438 1438
1427 1426 1427 1427 1427 1426 1426 1426 1426 1426 1425 1425 1424 1424 1423 1424 1424 1425 1425 1426 1427 1428 1428 1428 1428 1428 1427 1427 1427 1427 1427 1427 1427 1428 1429 1429 1430 1431 1432 1433 1434 1434 1435
1423 1423 1423 1423 1423 1422 1422 1422 1422 1422 1422 1421 1420 1420 1420 1420 1420 1421 1422 1422 1423 1424 1424 1424 1424 1424 1424 1424 1423 1423 1423 1423 1424 1424 1425 1425 1426 1427 1428 1429 1430 1431 1432
1420 1419 1419 1419 1419 1418 1418 1418 1417 1418 1418 1417 1417 1417 1417 1417 1417 1417 1418 1419 1419 1419 1420 1420 1420 1420 1420 1420 1420 1420 1420 1420 1420 1421 1421 1422 1422 1423 1425 1426 1427 1428 1429
1417 1416 1416 1415 1415 1415 1415 1414 1414 1414 1413 1414 1413 1413 1413 1414 1414 1414 1414 1415 1415 1415 1416 1416 1416 1417 1417 1416 1416 1416 1416 1417 1417 1417 1418 1418 1419 1420 1421 1422 1423 1424 1426
1414 1414 1413 1412 1412 1411 1411 1410 1410 1410 1410 1410 1410 1410 1410 1410 1410 1410 1411 1411 1412 1412 1412 1413 1413 1413 1413 1413 1414 1414 1413 1413 1413 1414 1414 1415 1416 1417 1418 1419 1420 1422 1423